Regional Weather Roundup
Issued by NWS

Home | Current Version | Previous Version | Graphics & Text | Print | Product List | Glossary Off
Versions: 1 2 3 4 5 6 7 8 9 10 11 12 13 14 15 16 17 18 19 20 21 22 23 24 25 26 27

000
ASUS43 KDMX 301707
RWRIA

WEATHER ROUNDUP FOR IOWA
NATIONAL WEATHER SERVICE DES MOINES IA
1200 PM CDT THU OCT 30 2014

NOTE: "FAIR" INDICATES FEW OR NO CLOUDS BELOW 12,000 FEET WITH NO
SIGNIFICANT WEATHER AND/OR OBSTRUCTIONS TO VISIBILITY.

* - THESE STATIONS ARE NOT NWS STATIONS...THUS NOT UNDER NWS
QUALITY CONTROL.  THEY ALSO DO NOT REPORT WEATHER SUCH
AS PRECIPITATION OR FOG.

IAZ001>003-012>014-020>022-031>034-043>046-301800-
   NORTHWEST IOWA

CITY           SKY/WX    TMP DP  RH WIND       PRES   REMARKS
CARROLL *      PTSUNNY   54  36  50 N10       30.03R
CHEROKEE *     SUNNY     54  39  58 NW10G20   30.05R
DENISON *      SUNNY     55  37  50 NW12      30.03R
LE MARS *      SUNNY     55  37  50 NW13G20   30.09R
ORANGE CITY *  SUNNY     55  36  47 N12G18    30.07R
SHELDON *      SUNNY     55  36  47 NW12G22   30.05R
SIOUX CITY     SUNNY     55  38  52 NW15G21   30.08R
SPENCER        SUNNY     54  36  50 N14       30.05R
STORM LAKE *   SUNNY     54  36  50 NW13G18   30.05R
$$

IAZ055>058-069>071-079>083-090>094-301800-
   SOUTHWEST IOWA

CITY           SKY/WX    TMP DP  RH WIND       PRES   REMARKS
ATLANTIC *     MOSUNNY   57  41  54 N10G16    30.02F
AUDUBON *      PTSUNNY   55  36  47 NW9       30.04R
CLARINDA *     SUNNY     59  39  47 NW12      30.05S
COUNCIL BLFS * SUNNY     57  41  54 NW13G20   30.05S
CRESTON *      SUNNY     55  41  58 NW10      30.02S
HARLAN  *      SUNNY     57  41  54 NW21      30.07R
LAMONI         SUNNY     55  40  56 N5        30.01S
RED OAK *      SUNNY     59  41  51 N12       30.04S
SHENANDOAH *   SUNNY     61  39  44 N14G20    30.05S
$$

IAZ047>049-059>061-072>074-084-301800-
   CENTRAL IOWA

CITY           SKY/WX    TMP DP  RH WIND       PRES   REMARKS
AMES           MOSUNNY   52  37  56 CALM      30.03S
ANKENY *       CLOUDY    54  37  54 CALM      30.03R
CHARITON *     SUNNY     54  39  58 CALM      30.02R
DES MOINES     MOSUNNY   57  37  47 CALM      30.02S
GRINNELL*      SUNNY     55  37  50 SE7       30.04S
KNOXVILLE *    MOSUNNY   55  37  50 CALM      30.01S
MARSHALLTOWN   SUNNY     54  38  54 S6        30.03S
PELLA *        SUNNY     59  39  47 S6        30.03S
PERRY *          N/A     55  37  50 NW5       30.02F
$$

IAZ004>006-015-016-023>025-035-036-301800-
   NORTH CENTRAL IOWA

CITY           SKY/WX    TMP DP  RH WIND       PRES   REMARKS
ALGONA *       CLOUDY    50  37  62 CALM      30.05R
CLARION *      PTSUNNY   55  37  50 S7        30.03F
ESTHERVILLE    MOSUNNY   51  35  54 N9        30.04R
FORT DODGE *   CLOUDY    50  37  62 CALM      30.05
MASON CITY     CLOUDY    48  38  68 SE7       30.06S
FOREST CITY *  PTSUNNY   46  37  71 SE3       30.05R
IOWA FALLS *     N/A     54  39  58 CALM      30.05F
$$

IAZ007>011-017>019-026>030-037>042-050>054-066-301800-
   NORTHEAST IOWA

CITY           SKY/WX    TMP DP  RH WIND       PRES   REMARKS
CEDAR RAPIDS   MOSUNNY   51  40  65 SE8       30.06S
CHARLES CITY * CLOUDY    48  37  66 S5        30.07S
CLINTON *      CLOUDY    46  36  66 S10       30.12F
DECORAH *      CLOUDY    45  37  76 SW5       30.07S
DUBUQUE        CLOUDY    46  37  71 S8        30.08F
MONTICELLO *   CLOUDY    48  39  71 S7        30.08S
OELWEIN *      PTSUNNY   48  37  66 S10       30.08S
WATERLOO       PTSUNNY   52  38  58 S8        30.06F
$$

IAZ064-065-067-068-078-301800-
   EAST CENTRAL IOWA

CITY           SKY/WX    TMP DP  RH WIND       PRES   REMARKS
DAVENPORT      CLOUDY    48  35  60 S8        30.10F
IOWA CITY      CLOUDY    48  40  73 SE12      30.08F
MT. PLEASANT * CLOUDY    50  37  62 SE7       30.07F
MUSCATINE *    PTSUNNY   46  36  66 SE6       30.10S
QUAD CITIES    CLOUDY    47  36  65 SE5       30.10F
$$

IAZ062-063-075>077-085>089-095>099-301800-
   SOUTHEAST IOWA

CITY           SKY/WX    TMP DP  RH WIND       PRES   REMARKS
BURLINGTON     CLOUDY    48  39  71 E3        30.08R
FAIRFIELD *    MOSUNNY   54  37  54 SE10      30.05S
FORT MADISON * CLOUDY    54  43  66 SE3       30.07F
KEOKUK *       PTSUNNY   52  39  62 SE8G16    30.04F
OSKALOOSA *      N/A     55  37  50 SE13      30.03F
CENTERVILLE *  SUNNY     55  39  54 SE3       30.03F
OTTUMWA        SUNNY     55  37  50 SE12      30.02F
WASHINGTON *   CLOUDY    50  41  71 SE10      30.06F
$$

ABBREVIATIONS USED IN REMARKS
   TC - TEMPERATURES IN CELSIUS
  WCI - WIND CHILL INDEX
   HX - HEAT INDEX
  VSB - VISIBILITY
$$




USA.gov is the U.S. government's official web portal to all federal, state and local government web resources and services.